GFSNE_prec_cloud_276.txt.gz
Cloud_Cover
53 100 100 99 97 95 96 100 98 95 100 100 100 100 100 100 62 24 100 97 10 0 1 4 5 0 2 0 2 4 5 5 5 5 5 5 16 5
100 100 100 91 37 86 100 100 83 100 99 98 100 100 100 100 100 97 91 100 100 100 5 13 65 34 6 5 5 5 5 5 5 5 5 5 5 5
98 100 90 96 97 68 75 100 62 88 98 100 100 100 100 100 100 100 88 100 100 100 83 44 11 62 89 81 64 15 5 5 5 5 5 51 37 23
40 94 99 100 93 85 100 16 54 93 99 99 95 100 100 100 100 100 100 100 100 100 100 100 100 100 99 100 100 56 97 6 6 30 99 100 100 29
13 5 44 100 100 100 96 28 81 100 100 100 100 100 100 100 100 100 100 100 100 100 100 100 100 100 100 100 100 100 36 75 55 7 87 99 100 100
5 5 7 69 100 100 100 96 100 100 100 100 100 100 100 100 100 100 100 100 100 100 100 100 100 100 100 100 100 100 100 84 90 35 25 16 99 100
65 60 14 47 100 100 100 99 100 100 100 100 100 100 100 100 78 57 100 100 100 100 100 100 100 100 100 100 100 100 100 100 73 22 9 26 100 100
100 99 95 78 76 100 100 97 100 100 100 100 100 100 100 100 100 100 100 100 100 100 100 100 100 100 100 100 100 100 100 100 100 90 92 61 100 91
100 100 90 15 56 100 99 99 100 100 100 100 100 100 100 100 100 100 100 100 100 100 100 100 100 100 100 100 100 100 100 100 93 100 100 100 100 100
100 98 80 97 2 8 78 67 100 100 100 100 100 100 100 100 100 100 100 100 100 100 100 100 100 100 100 100 100 100 100 100 100 100 100 100 100 100
87 99 6 6 5 5 5 96 100 100 100 100 100 100 100 100 99 97 100 100 100 100 100 100 100 100 100 100 100 96 94 100 100 100 100 100 100 100
11 13 5 5 10 12 69 100 100 100 100 100 100 100 97 100 100 97 100 100 100 100 100 80 96 100 100 100 100 70 81 100 100 100 100 100 100 100
60 23 16 5 32 5 74 65 32 100 100 100 100 100 98 100 89 94 99 65 84 95 100 53 92 100 100 100 89 92 19 79 100 100 100 100 100 100
0 0 0 3 14 4 5 15 73 26 52 78 40 100 100 89 76 100 100 100 100 100 100 100 100 100 100 100 100 29 16 5 10 38 100 100 100 100
3 5 4 4 3 5 5 5 5 5 0 3 11 15 100 100 100 100 100 100 85 5 11 100 100 100 49 23 30 41 5 1 0 38 57 33 100 100
14 8 0 5 5 5 5 5 5 6 5 5 17 55 52 100 85 6 5 54 10 24 89 29 61 63 86 30 6 36 44 5 44 57 88 100 100 100
0 0 0 5 90 86 7 57 28 96 5 5 75 47 54 36 55 40 5 5 5 20 51 61 11 78 80 18 6 5 5 30 100 99 60 52 81 69
5 4 5 8 100 100 94 23 5 5 77 34 84 13 11 72 67 90 16 49 69 56 23 68 94 88 87 83 82 75 46 16 45 100 95 90 89 26
5 82 17 45 100 100 100 100 87 100 100 100 96 51 21 53 100 100 36 100 80 99 100 95 100 96 32 84 86 73 98 100 100 100 54 12 81 98
80 78 65 100 96 92 100 100 100 100 100 100 47 42 95 100 85 88 100 100 100 100 100 100 100 99 100 94 100 95 86 54 89 99 83 28 96 75
100 98 100 100 100 100 100 100 100 100 100 100 100 97 100 100 100 94 92 100 100 99 99 100 82 59 54 81 12 5 5 46 92 67 100 42 14 78
100 90 100 97 100 100 100 100 100 100 100 100 100 100 100 100 100 100 100 100 100 100 100 100 100 98 58 41 65 48 100 100 100 100 100 100 100 26
100 100 100 100 100 100 100 100 100 100 100 100 100 100 100 100 100 100 100 100 100 100 100 100 100 100 100 100 100 100 100 100 100 100 100 75 61 2

GFSNE_prec_cloud_279.txt.gz
Cloud_Cover
43 100 100 100 100 100 94 96 100 100 100 100 100 99 87 100 11 100 100 40 100 100 6 9 1 2 0 0 0 0 0 0 0 0 4 1 4 3
76 94 99 100 100 97 91 99 100 100 100 100 100 100 100 100 94 97 100 100 100 100 100 100 73 100 6 21 3 3 5 5 5 4 4 4 5 2
10 7 100 100 100 100 100 87 100 100 100 100 100 100 100 100 100 100 100 100 100 100 100 100 95 100 100 6 89 6 5 5 5 7 74 77 100 66
7 92 100 100 100 100 100 100 100 100 100 100 100 100 100 100 100 100 100 100 100 100 100 100 98 100 100 100 100 46 99 88 36 5 6 5 5 93
65 30 95 95 100 100 100 100 100 100 100 100 100 100 100 100 100 100 100 100 100 100 100 100 100 100 100 100 100 100 100 100 100 100 74 6 5 5
86 70 59 39 100 100 100 100 100 100 100 100 100 100 100 100 100 100 100 100 100 100 100 100 100 100 100 100 100 100 100 100 100 100 100 100 32 14
99 100 100 94 100 100 100 100 100 100 100 100 100 100 100 100 100 100 100 100 100 100 100 100 100 100 100 100 100 100 100 100 100 100 62 100 100 45
5 100 100 100 100 98 100 100 100 100 100 100 100 100 100 100 100 100 100 100 100 100 100 100 100 100 100 100 100 100 100 100 100 100 100 51 100 96
16 12 98 100 100 100 100 100 96 99 100 100 100 100 100 100 100 100 100 100 100 100 100 100 100 100 100 100 100 100 100 100 100 100 100 100 100 100
51 81 5 87 100 100 100 100 91 100 100 100 100 100 100 100 100 100 100 100 100 100 100 100 100 100 100 100 100 100 100 100 100 100 100 100 100 100
2 15 54 5 8 8 89 100 63 17 96 84 100 100 100 100 100 100 100 100 100 100 100 99 99 98 100 100 100 100 100 100 100 100 100 100 100 100
1 5 47 98 73 6 5 4 77 63 62 100 100 100 100 100 100 100 100 100 100 100 100 100 100 100 100 100 100 100 100 100 100 100 100 100 100 100
8 21 1 4 26 46 9 64 83 19 12 46 75 89 100 100 100 100 100 100 100 100 100 95 100 100 100 100 99 100 100 100 100 100 100 100 100 91
2 5 0 0 14 24 29 4 6 46 5 42 100 100 100 100 100 100 100 93 69 75 61 100 100 100 100 100 100 100 100 97 33 99 97 75 12 5
7 80 28 33 17 12 5 4 3 5 5 2 6 13 43 100 100 100 100 100 89 100 96 100 100 100 100 100 100 73 23 5 5 5 28 42 6 6
84 10 17 84 26 1 0 5 5 5 5 8 5 0 3 1 6 21 5 23 88 98 43 88 57 57 59 92 53 52 86 11 4 1 5 74 80 47
100 85 94 75 50 31 18 29 53 28 5 5 5 5 2 4 5 34 64 100 81 100 57 5 9 7 12 5 17 84 45 38 40 30 98 36 28 56
100 100 100 37 75 66 92 37 73 91 71 18 21 5 12 91 58 17 5 6 56 72 68 56 67 68 63 88 67 87 100 100 97 100 99 100 91 75
100 100 98 100 100 71 37 86 100 100 100 100 100 99 91 99 85 6 44 99 97 76 87 77 73 100 91 94 100 69 94 90 98 98 30 96 86 100
100 100 100 100 100 98 96 46 18 68 88 100 100 100 100 100 95 100 100 100 69 65 100 100 100 92 100 100 98 54 92 100 100 100 100 100 100 100
100 100 100 100 100 100 100 100 90 100 89 72 96 100 100 100 100 100 100 100 100 100 100 100 100 100 96 100 100 100 100 98 99 100 100 100 100 100
100 100 100 100 100 100 100 100 100 100 100 100 100 100 100 100 100 100 100 100 100 100 100 100 100 100 100 100 100 100 100 92 100 100 100 96 100 95
100 100 100 100 100 100 100 100 100 100 100 100 100 100 100 100 100 100 100 100 100 100 100 100 100 98 99 100 100 100 100 100 96 59 47 100 100 100

GFSNE_prec_cloud_285.txt.gz
Cloud_Cover
34 42 85 96 100 100 100 100 94 100 93 100 100 100 100 93 100 82 38 100 41 5 4 0 0 0 0 0 0 0 0 0 0 0 2 1 0 0
20 19 43 78 100 75 94 99 100 100 100 100 100 100 94 93 45 70 98 100 97 31 6 20 5 8 64 5 0 5 3 5 4 5 5 6 5 5
24 36 95 90 90 89 100 100 100 100 100 100 100 92 97 100 78 94 10 100 87 100 100 96 50 72 23 98 45 61 19 7 100 100 82 5 4 4
84 33 100 100 94 100 100 100 100 94 96 100 100 100 94 100 81 68 82 99 100 100 99 47 29 100 100 75 52 20 91 99 9 10 57 100 19 5
100 57 86 43 94 100 69 100 100 99 86 100 100 100 100 100 100 97 82 98 96 42 43 8 92 5 30 100 81 26 26 76 99 3 5 5 43 100
52 39 36 24 42 37 59 60 100 100 96 97 100 100 100 100 100 100 98 59 98 45 85 84 70 5 59 90 68 95 29 35 62 40 100 97 21 5
99 100 100 71 91 95 100 100 100 100 100 100 100 100 100 100 100 100 83 86 54 98 98 32 22 62 100 100 40 70 82 9 87 89 99 78 100 100
89 92 88 100 100 100 100 99 100 100 100 100 100 100 100 100 100 100 100 100 94 98 95 94 97 66 94 100 92 100 100 100 100 100 92 99 74 100
100 100 60 23 99 100 100 96 100 100 100 100 100 100 100 100 100 100 100 100 100 100 100 100 100 99 59 78 100 100 100 100 100 99 100 85 40 93
1 16 73 88 58 77 82 100 100 100 100 100 100 100 100 100 100 100 100 100 100 100 100 100 100 100 100 100 100 100 100 100 100 100 100 100 91 92
72 0 0 2 19 38 5 13 57 100 100 100 100 100 100 100 100 100 100 100 100 100 100 100 100 100 100 100 100 100 100 100 100 100 100 100 100 100
100 100 22 0 27 44 19 12 49 10 50 99 100 92 97 100 100 100 100 100 100 100 100 100 100 100 100 100 100 100 100 100 100 100 100 100 100 100
99 98 100 86 21 48 39 20 4 12 7 18 71 100 100 100 100 100 100 100 100 100 100 100 100 100 100 100 100 100 100 100 100 100 100 100 100 100
92 99 98 100 68 70 78 15 52 15 2 11 47 95 100 100 100 100 100 100 100 100 100 100 100 100 100 100 100 100 100 100 100 100 100 100 100 100
67 86 79 99 100 100 91 81 83 87 40 32 32 16 5 50 98 100 100 100 100 100 100 100 100 100 100 100 100 100 100 100 100 100 100 100 100 100
99 51 65 69 98 87 94 100 100 93 48 60 44 5 2 1 5 4 4 76 96 90 91 96 100 100 100 100 100 100 100 98 100 99 97 92 100 100
60 87 90 99 69 69 97 100 100 100 100 75 75 57 38 6 5 5 9 21 13 5 5 5 17 32 43 88 81 88 100 98 76 84 99 99 89 100
94 52 40 100 100 100 100 99 100 100 98 100 85 26 54 76 81 69 29 34 33 75 90 93 92 44 55 29 17 91 88 88 100 100 100 100 100 100
100 99 86 78 100 100 100 100 100 100 100 100 100 99 100 98 96 99 100 90 76 91 94 100 100 100 100 98 100 100 100 100 100 100 100 100 100 98
100 100 96 77 100 100 100 100 100 100 100 100 100 100 100 100 100 100 100 100 100 100 100 100 96 100 97 74 100 99 78 100 100 100 100 100 100 100
100 100 100 100 99 98 100 99 100 100 100 100 100 100 100 100 100 100 100 100 100 100 100 100 100 100 100 100 100 100 100 100 100 100 100 100 100 100
100 100 100 100 100 100 99 85 100 100 100 100 100 100 100 100 100 100 100 100 100 100 100 100 100 100 100 100 100 100 100 100 100 100 100 100 100 100
84 100 100 100 99 100 87 100 100 100 100 100 100 100 100 100 100 100 100 100 100 100 100 100 100 100 100 100 100 100 100 100 100 100 100 100 100 100

GFSNE_prec_cloud_291.txt.gz
Cloud_Cover
100 99 94 91 99 91 21 78 91 99 88 100 100 99 88 48 10 25 37 5 2 67 5 2 0 5 3 4 4 5 5 5 10 33 15 17 56 84
100 94 60 69 65 61 56 25 49 99 79 90 77 99 74 29 17 19 32 100 9 11 96 55 8 5 5 5 16 35 84 79 62 81 100 100 100 100
100 100 81 65 62 78 93 59 41 90 76 88 100 92 98 48 51 57 51 86 60 1 5 7 11 6 5 34 97 100 50 24 8 11 5 5 5 48
100 96 100 73 95 70 89 85 61 100 100 100 100 100 100 100 100 100 83 51 28 5 5 5 5 5 5 5 5 6 7 5 5 5 5 5 5 6
95 100 100 81 72 40 99 95 100 100 100 100 65 100 100 55 47 55 95 100 69 12 13 5 1 1 6 5 5 5 5 9 14 49 74 61 38 96
100 99 73 81 72 100 100 100 100 92 100 100 100 100 100 100 91 94 100 93 89 59 20 5 11 3 0 2 4 45 36 22 27 94 100 100 43 47
84 100 95 52 100 100 99 35 59 73 69 100 100 100 100 100 100 100 100 100 54 95 72 58 15 57 7 39 6 96 22 20 99 84 81 100 100 100
100 81 86 45 30 6 12 46 99 100 100 100 100 100 100 100 100 100 100 100 100 100 94 87 63 25 98 43 6 6 98 76 6 100 100 100 100 100
55 92 55 26 24 80 100 37 58 56 98 100 95 100 100 100 100 100 100 100 100 100 100 100 99 58 13 58 100 62 90 58 48 38 58 91 80 86
72 57 52 34 18 13 64 47 58 95 90 100 100 75 88 100 100 100 100 100 100 100 100 100 100 100 92 45 93 95 91 78 100 100 100 100 98 61
100 100 71 34 14 7 0 6 15 22 61 84 100 100 100 100 100 100 100 100 100 100 100 100 100 100 100 96 100 100 100 100 100 100 100 100 98 100
100 100 100 100 100 53 5 7 22 11 15 50 44 100 67 100 100 80 98 100 100 100 100 100 100 100 100 100 100 100 100 100 100 100 100 100 100 97
93 100 100 100 100 95 95 68 37 34 17 0 0 5 32 42 70 100 100 100 98 100 100 100 100 100 100 100 100 100 100 100 100 100 100 100 100 100
100 94 99 96 97 93 86 38 50 79 62 36 3 0 0 6 92 82 82 100 100 100 100 100 100 100 100 100 100 100 100 100 100 100 100 100 100 100
100 92 98 100 100 95 100 79 100 98 88 14 5 5 5 3 7 70 70 100 72 38 89 100 100 100 100 100 100 100 100 100 100 100 100 100 100 100
100 100 30 80 79 74 75 77 79 98 100 78 100 96 78 70 36 71 49 5 5 9 42 46 81 100 100 100 100 100 100 100 100 100 100 100 100 100
98 93 94 87 73 83 82 74 99 100 100 100 100 100 99 93 100 93 93 62 62 5 5 5 25 25 27 65 82 82 83 98 100 100 100 100 100 100
97 100 99 100 100 100 40 49 73 91 100 100 100 100 100 100 95 60 94 84 71 67 24 6 58 10 18 15 66 61 97 74 29 98 99 100 100 100
84 88 90 100 100 99 98 71 59 79 81 100 100 100 100 100 100 89 97 100 100 91 98 49 69 99 79 50 90 99 56 84 100 100 100 100 77 89
98 99 95 100 100 100 100 100 100 100 98 100 100 100 96 91 97 100 100 100 100 100 100 98 100 100 100 100 100 100 100 98 73 95 96 62 54 47
74 96 96 91 90 94 89 79 100 100 100 100 100 96 84 84 73 63 100 100 100 100 100 100 100 100 100 100 100 100 100 100 100 100 100 100 100 99
87 100 100 98 97 80 100 79 72 64 100 100 100 100 100 99 83 100 100 100 93 100 100 100 100 100 100 100 100 100 100 100 100 100 100 100 100 100
91 93 92 100 80 63 75 62 29 67 100 100 99 100 100 100 49 98 100 100 100 100 100 100 100 100 100 100 100 100 100 100 100 100 100 100 100 100